Powrót do katalogu

HULIANWANG DIGUI-110

AktywnyŁącznośćLEO
NORAD 66920·PAYLOAD·🇨🇳 China

Wystrzelony Dec 6, 2025 z Wenchang Space Launch Site

Loading…

Następne Przeloty (najbliższe 24 godziny)

TLE

ŚwieżeSource: Space-Track

Epoka: Sep 14, 2026, 01:42 UTC

1 66920U 25285F   26257.07146526 -.00000092  00000-0  70055-4 0  9991
2 66920  50.0099 187.1965 0000179 263.3378  96.7474 13.29329308 37887

Śledź HULIANWANG DIGUI-110 w czasie rzeczywistym z AllMySat

Download on the App Store